FW1602 Weather Reports


Display with metric or nautical units.
time (UTC)temp
F
wind
direction
speed
MPH
gust
MPH
rain 1hr
in
rain 24hr
in
rain mn
in
humidity
%
barometer
mb
20260507164522 64 199 4.0 6.0 0.00 0.00 0.00 36 1017.0
20260507163001 65 216 3.0 6.0 0.00 0.00 0.00 42 1017.1
20260507161501 65 222 3.0 5.0 0.00 0.00 0.00 38 1017.2
20260507160001 66 234 3.0 5.0 0.00 0.00 0.00 38 1017.3
20260507154501 67 210 4.0 5.0 0.00 0.00 0.00 35 1017.0
20260507153001 68 195 4.0 8.0 0.00 0.00 0.00 36 1017.2
20260507151501 68 203 4.0 4.0 0.00 0.00 0.00 39 1017.0
20260507150002 69 171 5.0 8.0 0.00 0.00 0.00 38 1016.9
20260507144502 69 197 4.0 6.0 0.00 0.00 0.00 35 1016.8
20260507143001 70 216 5.0 8.0 0.00 0.00 0.00 32 1016.8
20260507141501 71 183 5.0 8.0 0.00 0.00 0.00 36 1016.6
20260507140023 73 194 4.0 6.0 0.00 0.00 0.00 37 1016.2
20260507134501 73 215 4.0 6.0 0.00 0.00 0.00 37 1016.0
20260507133002 72 211 3.0 5.0 0.00 0.00 0.00 33 1016.0
20260507131502 72 178 5.0 6.0 0.00 0.00 0.00 30 1016.0
20260507130004 71 187 4.0 6.0 0.00 0.00 0.00 32 1016.2
20260507124501 72 196 4.0 6.0 0.00 0.00 0.00 30 1016.4
20260507123002 74 183 4.0 5.0 0.00 0.00 0.00 29 1016.4
20260507121501 74 181 3.0 6.0 0.00 0.00 0.00 29 1016.5
20260507120002 75 206 4.0 8.0 0.00 0.00 0.00 30 1016.4
20260507114501 76 175 5.0 8.0 0.00 0.00 0.00 35 1016.3
20260507113002 77 188 5.0 8.0 0.00 0.00 0.00 39 1016.0
20260507111503 76 190 4.0 6.0 0.00 0.00 0.00 39 1016.3
20260507110003 76 177 5.0 6.0 0.00 0.00 0.00 39 1016.2
20260507104507 76 225 3.0 5.0 0.00 0.00 0.00 37 1016.1
20260507103002 75 213 4.0 7.0 0.00 0.00 0.00 40 1016.1
20260507101502 74 196 4.0 6.0 0.00 0.00 0.00 42 1016.2
20260507100003 75 174 5.0 8.0 0.00 0.00 0.00 38 1016.3
20260507094502 74 180 4.0 8.0 0.00 0.00 0.00 38 1016.2
20260507093003 74 212 4.0 10.0 0.00 0.00 0.00 43 1016.1
20260507091523 74 203 4.0 8.0 0.00 0.00 0.00 41 1016.2
20260507090004 74 203 3.0 4.0 0.00 0.00 0.00 43 1016.1
20260507084523 74 251 3.0 5.0 0.00 0.00 0.00 45 1016.1
20260507083003 74 168 2.0 6.0 0.00 0.00 0.00 48 1016.2
20260507081502 73 231 3.0 7.0 0.00 0.00 0.00 48 1016.3
20260507080025 71 180 3.0 6.0 0.00 0.00 0.00 51 1016.4
20260507074502 72 255 2.0 2.0 0.00 0.00 0.00 54 1016.1
20260507073002 72 259 2.0 6.0 0.00 0.00 0.00 54 1015.9
20260507071503 71 251 2.0 4.0 0.00 0.00 0.00 50 1016.1
20260507070006 71 215 2.0 4.0 0.00 0.00 0.00 51 1016.3
20260507064502 71 218 2.0 4.0 0.00 0.00 0.00 50 1016.3
20260507063003 70 221 2.0 6.0 0.00 0.00 0.00 46 1016.4
20260507061504 70 6 2.0 2.0 0.00 0.00 0.00 49 1016.3
20260507060003 69 22 1.0 2.0 0.00 0.00 0.00 52 1016.3
20260507054502 68 5 2.0 2.0 0.00 0.00 0.00 50 1016.3
20260507053003 67 333 1.0 2.0 0.00 0.00 0.00 47 1016.4
20260507051503 66 360 1.0 2.0 0.00 0.00 0.00 51 1016.4
20260507050003 64 292 1.0 2.0 0.00 0.00 0.00 58 1016.8
20260507044503 61 283 2.0 2.0 0.00 0.00 0.00 60 1016.9
20260507043003 57 270 1.0 2.0 0.00 0.00 0.00 67 1017.4
20260507041524 53 279 2.0 2.0 0.00 0.00 0.00 72 1018.0
20260507040004 51 275 2.0 2.0 0.00 0.00 0.00 72 1018.2
20260507034503 50 273 3.0 5.0 0.00 0.00 0.00 72 1018.4
20260507033003 50 280 2.0 2.0 0.00 0.00 0.00 72 1018.3
20260507031503 52 306 3.0 5.0 0.00 0.00 0.00 69 1017.9
20260507030004 51 270 1.0 2.0 0.00 0.00 0.00 71 1017.7
20260507024503 51 286 3.0 5.0 0.00 0.00 0.00 70 1017.8
20260507023003 52 285 3.0 5.0 0.00 0.00 0.00 67 1017.7
20260507021503 52 290 2.0 2.0 0.00 0.00 0.00 65 1017.5
20260507020004 53 308 2.0 5.0 0.00 0.00 0.00 60 1017.2
20260507014525 53 296 2.0 5.0 0.00 0.00 0.00 62 1017.2
20260507013004 53 290 3.0 5.0 0.00 0.00 0.00 63 1017.2
20260507011525 53 278 2.0 5.0 0.00 0.00 0.00 63 1016.9
20260507010026 53 281 3.0 5.0 0.00 0.00 0.00 63 1016.9
20260507004504 52 281 3.0 5.0 0.00 0.00 0.00 66 1017.1
20260507003004 53 298 3.0 5.0 0.00 0.00 0.00 65 1016.9
20260507001505 53 295 3.0 5.0 0.00 0.00 0.00 66 1017.0
20260507000026 54 281 4.0 5.0 0.00 0.00 0.00 62 1017.1
20260506234501 55 271 2.0 5.0 0.00 0.00 0.00 60 1017.1
20260506233002 57 303 3.0 5.0 0.00 0.00 0.00 57 1017.0
20260506231501 55 299 3.0 5.0 0.00 0.00 0.00 62 1017.5
20260506230002 53 301 3.0 5.0 0.00 0.00 0.00 64 1017.7
20260506224521 52 291 3.0 5.0 0.00 0.00 0.00 67 1017.8
20260506223000 53 270 2.0 2.0 0.00 0.00 0.00 67 1017.8
20260506221522 54 297 3.0 5.0 0.00 0.00 0.00 68 1017.9
20260506220005 52 288 3.0 5.0 0.00 0.00 0.00 72 1018.0
20260506214521 52 299 2.0 5.0 0.00 0.00 0.00 72 1018.0
20260506213001 52 290 3.0 5.0 0.00 0.00 0.00 71 1018.1
20260506211501 53 283 2.0 2.0 0.00 0.00 0.00 70 1018.2
20260506210033 53 312 3.0 5.0 0.00 0.00 0.00 70 1018.3
20260506204501 53 288 3.0 5.0 0.00 0.00 0.00 70 1018.4
20260506203022 54 312 3.0 5.0 0.00 0.00 0.00 68 1018.2
20260506201522 54 289 3.0 5.0 0.00 0.00 0.00 69 1018.2
20260506200002 55 285 1.0 2.0 0.00 0.00 0.00 67 1017.9
20260506194522 55 301 3.0 5.0 0.00 0.00 0.00 66 1017.7
20260506193001 56 308 3.0 5.0 0.00 0.00 0.00 64 1017.4
20260506191501 56 283 2.0 5.0 0.00 0.00 0.00 65 1017.3
20260506190002 56 295 2.0 5.0 0.00 0.00 0.00 64 1017.1
20260506184501 55 287 2.0 2.0 0.00 0.00 0.00 67 1017.2
20260506181522 58 291 2.0 2.0 0.00 0.00 0.00 62 1016.5
20260506180002 60 278 1.0 2.0 0.00 0.00 0.00 57 1016.2
20260506174501 58 275 2.0 2.0 0.00 0.00 0.00 62 1016.3
20260506173001 60 284 3.0 5.0 0.00 0.00 0.00 60 1015.9
20260506171501 60 302 2.0 5.0 0.00 0.00 0.00 62 1015.9
20260506170003 61 299 2.0 2.0 0.00 0.00 0.00 61 1015.7